Location: Cz?stochówka
(50.8142°N, 19.0915°E)
Time: 09:35:35
(UTC+00:00)

Cosmos 909 Rocket - Pass Details

Date: 13 January 2026
Orbit: 992 x 2087 km, 65.9° (Epoch: 18 February)

Event Time Altitude Azimuth Distance (km) Brightness Sun altitude
Exits shadow 03:38:02 66° 228° (SW) 1,144 4.1 -28.1°
Drops below altitude 10° 03:44:53 10° 157° (SSE) 3,095 6.9 -27.0°
Sets 03:47:50 0° 155° (SSE) 4,189 7.7 -26.5°
